{"data":{"norad_id":55076,"intl_designator":"2023-001BV","name":"YAM-5","alt_names":[],"object_type":"PAYLOAD","status":"ACTIVE","operator":null,"country":"US","launch_date":"2023-01-03","launch_site_code":"AFETR","launch_vehicle":null,"mission":null,"orbit_class":"UNKNOWN","rcs_meters":null,"size_class":null,"mass_kg":null,"dimensions":null,"purposes":[],"wikipedia_slug":null,"has_3d_model":false,"image_url":null,"decayed_at":null,"tle_current":{"epoch":"2026-09-21T17:58:44.687712Z","epoch_age_seconds":57423,"freshness":"FRESH","line1":"1 55076U 23001BV  26264.74912833  .00007827  00000+0  19602-3 0  9990","line2":"2 55076  97.3098 327.7010 0009826 116.8091 243.4161 15.40302835206967","mean_motion":15.40302835,"eccentricity":0.0009826,"inclination_deg":97.3098,"raan_deg":327.701,"arg_perigee_deg":116.8091,"mean_anomaly_deg":243.4161,"bstar":0.00019602,"rev_number":20696,"period_min":93.488109434013,"perigee_km":438.51019809168,"apogee_km":451.9194490954,"semimajor_km":6823.3518235935,"source":"CELESTRAK","updated_at":"2026-09-22T09:00:25.270082Z"}}}